Regional Weather Roundup
Issued by NWS

Home | Current Version | Previous Version | Graphics & Text | Print | Product List | Glossary On
Versions: 1 2 3 4 5 6 7 8 9 10 11 12 13 14 15 16 17 18 19 20 21 22 23 24 25 26 27 28 29 30 31 32 33 34 35 36 37 38 39 40 41 42 43 44 45 46 47 48 49 50
562
ASUS43 KMKX 291511
RWRWI

WISCONSIN REGIONAL WEATHER ROUNDUP
NATIONAL WEATHER SERVICE MILWAUKEE/SULLIVAN WI
1000 AM CDT THU SEP 29 2016

NOTE: "FAIR" INDICATES FEW OR NO CLOUDS BELOW 12,000 FEET WITH NO
SIGNIFICANT WEATHER AND/OR OBSTRUCTIONS TO VISIBILITY.

WIZ001-002-006>008-014>016-023>028-291600-
NORTHWEST WISCONSIN

CITY           SKY/WX    TMP DP  RH WIND       PRES   REMARKS
SUPERIOR ARPT  CLOUDY    58  52  81 NE9       30.52R
ASHLAND        CLOUDY    55  52  89 NE13      30.52R
HAYWARD        CLOUDY    55  49  80 NE10G21   30.50R
SIREN          PTSUNNY   53  52  97 NE7       30.49S
CUMBERLAND     CLOUDY    54  50  87 NE9       30.48R
RICE LAKE      PTSUNNY   56  49  77 N10       30.49R
CHETEK         NOT AVBL
LADYSMITH      CLOUDY    53  50  90 NE9       30.49R
EAU CLAIRE     PTSUNNY   54  49  83 NE9       30.45R
MENOMONIE      SUNNY     57  50  77 N9        30.45S
NEW RICHMOND   PTSUNNY   54  50  86 NE7       30.49R
OSCEOLA        SUNNY     56  53  90 N7        30.51S
$$

WIZ003>005-009-010-017-018-291600-
NORTH CENTRAL WISCONSIN

CITY           SKY/WX    TMP DP  RH WIND       PRES   REMARKS
MANITOWISH WTR NOT AVBL
ARBOR VITAE    CLOUDY    57  53  88 NE7       30.47S
WOODRUFF       CLOUDY    57  53  88 NE7       30.47S
RHINELANDER    CLOUDY    53  51  93 NE8       30.47R
EAGLE RIVER    CLOUDY    53  51  92 NE12G17   30.47R
LAND O LAKES   CLOUDY    54  50  87 NE9       30.50R
PHILLIPS       CLOUDY    52  50  94 N12       30.47R
TOMAHAWK       CLOUDY    51  48  89 NE8       30.47R
MEDFORD        SUNNY     53  53 100 N10       30.44R
MERRILL        PTSUNNY   54  51  89 N10       30.45R
$$

WIZ029-030-035-036-043>047-291600-
CENTRAL WISCONSIN

CITY           SKY/WX    TMP DP  RH WIND       PRES   REMARKS
WAUSAU         SUNNY     55  49  80 N10       30.42R
MOSINEE        MOSUNNY   55  52  88 N14       30.43R
MARSHFIELD     SUNNY     57  48  72 NE13      30.41R
STEVENS POINT  SUNNY     58  51  76 N10G16    30.40S
WAUPACA        SUNNY     64  54  71 N10       30.38R
WAUTOMA        SUNNY     62  52  69 NE14      30.37R
WISC RAPIDS    SUNNY     60  51  72 NE9       30.41R
CAMP DOUGLAS   SUNNY     59  52  77 N7        30.39R
$$

WIZ011>013-019>022-031-037>040-048>050-291600-
NORTHEAST WISCONSIN

CITY           SKY/WX    TMP DP  RH WIND       PRES   REMARKS
ANTIGO         SUNNY     55  51  86 N6        30.44R
SHAWANO        SUNNY     63  54  73 NE10      30.40R
OCONTO         NOT AVBL
STURGEON BAY   PTSUNNY   63  56  78 N14G21    30.38R
GREEN BAY      MOSUNNY   61  56  83 NE18G24   30.37R
MANITOWOC      CLOUDY    64  58  80 NE12G23   30.33R
APPLETON       MOSUNNY   59  55  88 NE16      30.34S
CLINTONVILLE   SUNNY     61  50  67 NE14G20   30.38R
OSHKOSH        PTSUNNY   58  54  86 NE16      30.34R
$$

WIZ032>034-041-042-053>061-291600-
SOUTHWEST WISCONSIN

CITY           SKY/WX    TMP DP  RH WIND       PRES   REMARKS
LA CROSSE      SUNNY     59  51  75 N9        30.42R
SPARTA         SUNNY     55  50  82 N8        30.41R
VIROQUA        SUNNY     57  50  77 N12       30.39R
BOSCOBEL       SUNNY     62  51  67 N12       30.37R
PRAIRIE DU CHI SUNNY     59  49  69 N5        30.37R
PLATTEVILLE    SUNNY     59  54  82 N15G22    30.33R
$$

WIZ056-057-062-063-064-067-068-291600-
SOUTH CENTRAL WISCONSIN

CITY           SKY/WX    TMP DP  RH WIND       PRES   REMARKS
REEDSBURG      NOT AVBL
BARABOO/DELLS  SUNNY     57  51  80 NE5       30.35S
LONE ROCK      SUNNY     61  51  70 NE8       30.36R
MINERAL POINT  SUNNY     59  52  77 N14       30.34R
MADISON        MOSUNNY   58  53  84 N15       30.31S
MIDDLETON      PTSUNNY   59  54  82 N14       30.32S
WATERTOWN      MOSUNNY   62  56  83 N16G22    30.28R
MONROE         CLOUDY    55  52  88 N16G24    30.28S
JANESVILLE     MOSUNNY   63  55  77 N12G25    30.25R
$$

WIZ051-052-058>065-066-070>072-291600-
SOUTHEAST WISCONSIN

CITY           SKY/WX    TMP DP  RH WIND       PRES   REMARKS
MILWAUKEE      MOSUNNY   63  58  83 NE17G28   30.25R
WAUKESHA       MOSUNNY   64  55  72 NE20G25   30.27R
MILWAUKEE/TIMM SUNNY     64  54  68 NE22G30   30.26R
RACINE         CLOUDY    62  56  80 NE15      30.25R
BURLINGTON     MOSUNNY   64  54  69 NE17G25   30.23S
KENOSHA        PTSUNNY   63  57  81 NE18G26   30.23R
FOND DU LAC    CLOUDY    59  55  87 N17G25    30.34R
SHEBOYGAN      PTSUNNY   63  58  83 N13G24    30.30R
WEST BEND      PTSUNNY   70  63  78 NE15G22   30.28S
JUNEAU         CLOUDY    58  54  86 N16G25    30.32R
$$

LSZ147-162-291600-
LAKE SUPERIOR

STATION/POSITION TIME  TEMP    WIND        PRES    WAVE
                       AIR SEA DIR/SP/G            HT/PER
                 (UTC) (F)     (DEG/KT/KT) (MB)    (FT/S)
W MID LAKE BUOY  1450   55 55   40/ 10/ 12 1033.4R   2/ 4
DEVILS ISLAND    1400   53      40/ 10/ 11 1033.6R
SAXON HARBOR     1400   56      30/ 12/ 14 1032.2R
$$

LMZ867-665-643>646-291600-
LAKE MICHIGAN

STATION/POSITION TIME  TEMP    WIND        PRES    WAVE
                       AIR SEA DIR/SP/G            HT/PER
                 (UTC) (F)     (DEG/KT/KT) (MB)    (FT/S)
CHAMBERS ISLAND  1400   62     350/ 19/ 23 1027.8R
S GREEN BAY BUOY 1400   59 62   50/ 17/ 21 1027.4
N MID LAKE BUOY  1450   62 66   40/ 16/ 19 1028.2R   3/ 5
NORTHPORT PIER   1400   62      30/ 11/ 15 1028.4R
SISTER BAY       1308   65      20/  9/ 15   N/A
KEWAUNEE LAKESHO 1400   61      10/ 11/ 18 1026.4R
SHEBOYGAN LAKESH 1500   60     360/ 21/ 22 1025.7R
PORT WASHINGTON  1404   65      30/ 20/ 27 1025.4R
ATWATER BUOY     1400   57      20/ 17/ 23 1023.5R
MILWAUKEE LAKESH 1410   60     360/ 21/ 26   N/A
S MID LAKE BUOY  1450   64 69   50/ 23/ 27 1021.4R   7/ 8
KENOSHA   LAKESH 1500   60      20/ 22/ 24 1023.0R
$$

TC  - TEMPERATURE IN CELSIUS
VSB - VISIBILITY IN STATUTE MILES
WCI - WIND CHILL INDEX
HX  - HEAT INDEX





USA.gov is the U.S. government's official web portal to all federal, state and local government web resources and services.